sat.trackr.live / text

‹ back to catalog

STARLINK-36192

NORAD 67024 · 2025-293X

PAYLOAD ACTIVE UNKNOWN

§ Identity

Operator
Country
US
Launch date
2025-12-10
Launch site
AFWTR
Launch vehicle
Mass (kg)
RCS (m²)

Purposes: comms

External: N2YO · Heavens-Above · Gunter

§ Orbital elements

Epoch: 2026-09-20T13:01:05.788704Z

Period
96.11 min
Inclination
70.0048°
Eccentricity
0.0002796
Mean motion
14.98335508 rev/d
Perigee alt
570.1 km
Apogee alt
574.0 km
Semi-major
6,950.2 km
B*
-1.0168e-3
RAAN
323.2128°
Arg perigee
255.4076°
Mean anomaly
104.6773°
Rev number
4,407

§ Raw data

STARLINK-361921 67024U 25293X   26263.54242811 -.00012206  00000+0 -10168-2 0  99962 67024  70.0048 323.2128 0002796 255.4076 104.6773 14.98335508 44073

JSON: /api/v1/satellites/67024 · /tle

For live sub-satellite position, see the globe view (requires WebGL).

§ Visibility from observer

Set your observer location to see the next 7 days of passes ≥ 10°. The values pass through the URL so the page stays shareable.

No JS? Fill the form by hand. The geolocation button needs JavaScript.